Regional Weather Roundup
Issued by NWS

Home | Current Version | Previous Version | Graphics & Text | Print | Product List | Glossary On
Versions: 1 2 3 4 5 6 7 8 9 10 11 12 13 14 15 16 17 18 19 20 21 22 23 24 25 26 27 28 29 30 31 32 33 34 35 36 37 38 39 40 41 42 43 44 45 46 47 48 49 50
000
ASUS43 KLMK 300110
RWRKY
KENTUCKY REGIONAL WEATHER ROUNDUP
NATIONAL WEATHER SERVICE LOUISVILLE KY
900 PM EDT SAT AUG 29 2015

NOTE "FAIR" INDICATES FEW OR NO CLOUDS BELOW 12,000 FEET
WITH NO SIGNIFICANT WEATHER AND/OR OBSTRUCTIONS TO VISIBILITY.

KYZ001>023-026-027-061>063-070>075-300200-
WESTERN AND SOUTH CENTRAL KENTUCKY

CITY           SKY/WX    TMP DP  RH WIND       PRES   REMARKS
PADUCAH        CLOUDY    77  68  73 CALM      30.00R
HENDERSON      PTCLDY    73  68  83 CALM      30.00S
OWENSBORO      PTCLDY    79  70  74 NE5       30.03R
HOPKINSVILLE   PTCLDY    80  70  70 S8        30.03R
BOWLING GREEN  PTCLDY    78  68  71 S7        30.06S
GLASGOW        PTCLDY    75  67  77 CALM      30.08R
$$

KYZ024-025-028>034-038-045-046-053-300200-
NORTH CENTRAL KENTUCKY

CITY           SKY/WX    TMP DP  RH WIND       PRES   REMARKS
LOUISVILLE/SDF MOCLDY    80  66  62 S10       30.04R
LOUISVILLE/LOU CLEAR     79  65  62 S9        30.05R
FORT KNOX      PTCLDY    76  66  72 SE7       30.05R
$$

KYZ035>037-039>044-047>052-055>060-089>105-300200-
NORTHEAST KENTUCKY

CITY           SKY/WX    TMP DP  RH WIND       PRES   REMARKS
LEXINGTON      CLOUDY    77  68  73 S5        30.09R
COVINGTON      MOCLDY    74  67  78 CALM      30.07
FRANKFORT      MOCLDY    77  65  66 SW7       30.07R
$$

KYZ054-064>069-076>088-106>120-300200-
SOUTHEAST KENTUCKY

CITY           SKY/WX    TMP DP  RH WIND       PRES   REMARKS
JACKSON        PTCLDY    75  63  66 CALM      30.12S
LONDON         PTCLDY    76  65  68 CALM      30.11S
SOMERSET       CLOUDY    75  68  78 CALM      30.11R
MIDDLESBORO    PTCLDY    73  67  80 CALM      30.13S
MONTICELLO     CLOUDY    75  73  93 CALM      30.13R
$$




USA.gov is the U.S. government's official web portal to all federal, state and local government web resources and services.